This demonstration page uses our WeatherBlox Daily Observations layout. Learn more.

Left ArrowRight Arrow

Hourly Observations for September 15, 2022

Temp ( °F °C ) Dew Point ( °F °C ) Humidity (%) Winds ( mph kmh ) Pressure ( in mb ) Visibility ( mi km ) Precip ( " mm )
12:53 am 00:53 Clear 61 16.1 59 15 93 93 Calm 30.20 1023 9 14 0.00 0.00
1:53 am 01:53 Clear 59 15 57 13.9 93 93 Calm 30.20 1023 8 13 0.00 0.00
2:33 am 02:33 Mostly Clear with Mist and Fog 59 15 58 14.4 96 96 Calm 30.22 1023 5 8 0.00 0.00
2:53 am 02:53 Clear with Mist and Fog 59 15 57 13.9 93 93 Calm 30.21 1023 6 10 0.00 0.00
2:58 am 02:58 Clear with Mist and Fog 58 14.4 57 13.9 97 97 Calm 30.22 1023 2 2 0.00 0.00
3:14 am 03:14 Partly Cloudy with Mist and Fog 58 14.4 57 13.9 97 97 Calm 30.22 1023 3 5 0.00 0.00
3:25 am 03:25 Mostly Cloudy with Mist and Fog 58 14.4 56 13.3 93 93 Calm 30.22 1023 6 10 0.00 0.00
3:28 am 03:28 Mostly Cloudy with Mist and Fog 58 14.4 57 13.9 97 97 Calm 30.22 1023 2 2 0.00 0.00
3:38 am 03:38 Mostly Cloudy with Mist and Fog 58 14.4 57 13.9 97 97 Calm 30.22 1023 3 4 0.00 0.00
3:45 am 03:45 Mostly Clear with Mist and Fog 59 15 57 13.9 93 93 Calm 30.22 1023 5 8 0.00 0.00
3:53 am 03:53 Mostly Clear with Mist and Fog 58 14.4 56 13.3 93 93 Calm 30.22 1023 3 5 0.00 0.00
4:00 am 04:00 Clear with Mist and Fog 57 13.9 56 13.3 96 96 Calm 30.22 1023 2 3 0.00 0.00
4:10 am 04:10 Clear with Mist and Fog 58 14.4 56 13.3 93 93 Calm 30.22 1023 3 5 0.00 0.00
4:24 am 04:24 Clear with Mist and Fog 57 13.9 55 12.8 93 93 Calm 30.23 1024 2 3 0.00 0.00
4:34 am 04:34 Clear 58 14.4 56 13.3 93 93 Calm 30.23 1024 7 11 0.00 0.00
4:53 am 04:53 Clear 58 14.4 56 13.3 93 93 Calm 30.22 1023 7 11 0.00 0.00
5:53 am 05:53 Mostly Clear with Mist and Fog 57 13.9 55 12.8 93 93 Calm 30.23 1024 6 10 0.00 0.00
6:37 am 06:37 Clear with Mist and Fog 56 13.3 55 12.8 97 97 Calm 30.25 1024 2 2 0.00 0.00
6:47 am 06:47 Clear with Mist and Fog 55 13 54 12 94 94 Calm 30.25 1024 3 5 0.00 0.00
6:53 am 06:53 Clear with Mist and Fog 55 12.8 54 12.2 96 96 Calm 30.25 1024 5 8 0.00 0.00
7:53 am 07:53 Sunny 56 13.3 55 12.8 97 97 Calm 30.27 1025 7 11 0.00 0.00
8:53 am 08:53 Sunny 62 16.7 60 15.6 93 93 Calm 30.28 1025 10 16 0.00 0.00
9:53 am 09:53 Sunny 67 19.4 62 16.7 84 84 Calm 30.27 1025 8 13 0.00 0.00
10:53 am 10:53 Sunny 72 22.2 63 17.2 73 73 VRB 3 6 30.28 1025 10 16 0.00 0.00
11:53 am 11:53 Sunny 76 24.4 62 16.7 62 62 Calm 30.27 1025 10 16 0.00 0.00
12:53 pm 12:53 Sunny 79 26.1 62 16.7 56 56 Calm 30.25 1024 10 16 0.00 0.00
1:53 pm 13:53 Sunny 80 26.7 60 15.6 51 51 E 5 7 30.23 1024 10 16 0.00 0.00
2:53 pm 14:53 Sunny 82 27.8 61 16.1 49 49 NNW 5 7 30.21 1023 10 16 0.00 0.00
3:53 pm 15:53 Sunny 82 27.8 62 16.7 51 51 Calm 30.19 1022 10 16 0.00 0.00
4:53 pm 16:53 Sunny 82 27.8 60 15.6 47 47 Calm 30.18 1022 10 16 0.00 0.00
5:53 pm 17:53 Sunny 78 25.6 66 18.9 67 67 Calm 30.18 1022 10 16 0.00 0.00
6:53 pm 18:53 Sunny 73 22.8 66 18.9 79 79 Calm 30.17 1022 10 16 0.00 0.00
7:53 pm 19:53 Clear 68 20 65 18.3 90 90 Calm 30.19 1022 10 16 0.00 0.00
8:53 pm 20:53 Clear 66 18.9 64 17.8 93 93 Calm 30.19 1022 10 16 0.00 0.00
9:53 pm 21:53 Clear 65 18.3 62 16.7 90 90 Calm 30.19 1023 10 16 0.00 0.00
10:53 pm 22:53 Clear 63 17.2 61 16.1 93 93 Calm 30.19 1023 8 13 0.00 0.00
11:53 pm 23:53 Clear 62 16.7 61 16.1 96 96 Calm 30.20 1023 7 11 0.00 0.00

Powered by AerisWeather